{"data":{"norad_id":60746,"intl_designator":"2024-153B","name":"2024-153B","alt_names":[],"object_type":"PAYLOAD","status":"ACTIVE","operator":null,"country":"PRC","launch_date":"2024-08-29","launch_site_code":"YSLA","launch_vehicle":null,"mission":null,"orbit_class":"UNKNOWN","rcs_meters":null,"size_class":null,"mass_kg":null,"dimensions":null,"purposes":[],"wikipedia_slug":null,"has_3d_model":false,"image_url":null,"decayed_at":null,"tle_current":{"epoch":"2026-05-25T04:57:19.963584Z","epoch_age_seconds":67379,"freshness":"FRESH","line1":"1 60746U 24153B   26145.20648106  .00013295  00000+0  42338-3 0  9995","line2":"2 60746  97.6748 283.8062 0009119 235.7391 124.2987 15.32659497 96431","mean_motion":15.32659497,"eccentricity":0.0009119,"inclination_deg":97.6748,"raan_deg":283.8062,"arg_perigee_deg":235.7391,"mean_anomaly_deg":124.2987,"bstar":0.00042338,"rev_number":9643,"period_min":93.95433250625,"perigee_km":461.63839279161,"apogee_km":474.12416092494,"semimajor_km":6846.0182768583,"source":"CELESTRAK","updated_at":"2026-05-25T13:38:02.200115Z"}}}